This demonstration page uses our WeatherBlox Daily Observations layout. Learn more.

Left ArrowRight Arrow

39.51506, -84.39828

Hourly Observations for October 6, 2015

Temp ( °F °C ) Dew Point ( °F °C ) Humidity (%) Winds ( mph kmh ) Pressure ( in mb ) Visibility ( mi km ) Precip ( " mm )
12:15 am 00:15 Clear 57 13.8 53 11.9 88 88 N N/A 30.09 1019 10 16 N/A
12:35 am 00:35 Clear 57 13.8 53 11.9 88 88 N N/A 30.09 1019 10 16 N/A
12:55 am 00:55 Clear 57 13.8 54 12 89 89 N N/A 30.09 1019 10 16 N/A
1:15 am 01:15 Clear with Mist and Fog 57 13.8 54 12 89 89 N N/A 30.09 1019 4 6 N/A
1:35 am 01:35 Clear 57 13.8 54 12 89 89 N N/A 30.09 1019 7 11 N/A
1:55 am 01:55 Clear 55 12.9 52 11.1 89 89 N N/A 30.09 1019 10 16 N/A
2:15 am 02:15 Clear 55 12.8 52 11.1 90 90 N N/A 30.09 1019 7 11 N/A
2:35 am 02:35 Clear 57 13.8 54 12.1 90 90 N N/A 30.09 1019 10 16 N/A
2:55 am 02:55 Clear 57 13.8 54 12.1 90 90 N N/A 30.09 1019 10 16 N/A
3:15 am 03:15 Clear 57 13.8 54 12.1 90 90 NE 3 6 30.09 1019 10 16 N/A
3:35 am 03:35 Clear 57 13.8 54 12.1 90 90 N N/A 30.09 1019 10 16 N/A
3:55 am 03:55 Clear 57 13.8 54 12 89 89 NE 3 6 30.09 1019 10 16 N/A
4:15 am 04:15 Clear 57 13.8 54 12 89 89 N N/A 30.09 1019 10 16 N/A
4:35 am 04:35 Clear 57 13.8 54 12 89 89 N N/A 30.09 1019 10 16 N/A
4:55 am 04:55 Clear 57 13.8 54 12 89 89 N N/A 30.09 1019 10 16 N/A
5:15 am 05:15 Clear with Mist and Fog 55 12.7 52 11 89 89 N N/A 30.09 1019 2 3 N/A
5:35 am 05:35 Clear with Mist and Fog 55 12.5 51 10.7 89 89 N N/A 30.09 1019 3 4 N/A
5:55 am 05:55 Clear 55 12.5 51 10.7 89 89 N N/A 30.09 1019 10 16 N/A
6:15 am 06:15 Clear 55 12.5 51 10.8 89 89 N N/A 30.09 1019 7 11 N/A
6:35 am 06:35 Clear 55 12.5 51 10.8 89 89 N N/A 30.09 1019 7 11 N/A
6:55 am 06:55 Clear 55 12.5 51 10.8 89 89 N N/A 30.09 1019 7 11 N/A
7:15 am 07:15 Clear 55 12.5 51 10.8 89 89 N N/A 30.09 1019 10 16 N/A
7:35 am 07:35 Clear 55 12.5 51 10.8 89 89 N N/A 30.09 1019 10 16 N/A
7:55 am 07:55 Sunny 55 12.5 52 10.9 90 90 ENE 3 6 30.12 1020 7 11 N/A
8:15 am 08:15 Sunny with Mist and Fog 55 12.5 52 10.9 90 90 N N/A 30.12 1020 4 6 N/A
8:35 am 08:35 Sunny 55 12.5 52 11 91 91 N N/A 30.12 1020 10 16 N/A
8:55 am 08:55 Sunny 57 13.8 55 12.5 92 92 N N/A 30.12 1020 10 16 N/A
9:15 am 09:15 Sunny 60 15.3 57 13.7 90 90 N N/A 30.12 1020 10 16 N/A
9:35 am 09:35 Sunny 62 16.5 57 14 85 85 N N/A 30.09 1019 10 16 N/A
9:55 am 09:55 Sunny 64 17.9 57 14 78 78 N N/A 30.09 1019 10 16 N/A
10:15 am 10:15 Sunny 67 19.5 57 14.1 71 71 N N/A 30.09 1019 10 16 N/A
10:35 am 10:35 Sunny 67 19.5 56 13.3 68 68 N N/A 30.09 1019 10 16 N/A
10:55 am 10:55 Sunny 69 20.8 57 14 65 65 N N/A 30.12 1020 10 16 N/A
11:15 am 11:15 Sunny 69 20.8 53 11.6 56 56 N N/A 30.09 1019 10 16 N/A
11:35 am 11:35 Sunny 71 21.7 52 10.9 50 50 N N/A 30.09 1019 10 16 N/A
11:55 am 11:55 Sunny 74 23.6 51 10.3 43 43 N N/A 30.09 1019 10 16 N/A
12:15 pm 12:15 Sunny 74 23.6 46 7.8 36 36 N 3 6 30.09 1019 10 16 N/A
12:35 pm 12:35 Sunny 74 23.6 45 7.4 35 35 N N/A 30.09 1019 10 16 N/A
12:55 pm 12:55 Sunny 75 23.8 45 7.4 35 35 N N/A 30.09 1019 10 16 N/A
1:15 pm 13:15 Sunny 77 25.1 46 7.7 33 33 N N/A 30.09 1019 10 16 N/A
1:35 pm 13:35 Sunny 77 25.1 47 8.2 34 34 N N/A 30.09 1019 10 16 N/A
1:55 pm 13:55 Sunny 77 25.1 49 9.6 38 38 NNE 3 6 30.09 1019 10 16 N/A
2:15 pm 14:15 Sunny 77 25.1 50 9.8 38 38 N N/A 30.06 1018 10 16 N/A
2:55 pm 14:55 Sunny with Drizzle 78 25.4 48 9 35 35 N N/A 30.06 1018 10 16 N/A
3:15 pm 15:15 Sunny 78 25.3 49 9.5 37 37 N N/A 30.06 1018 10 16 N/A
3:35 pm 15:35 Sunny 80 26.5 51 10.8 37 37 N N/A 30.03 1017 10 16 N/A
3:55 pm 15:55 Sunny 80 26.5 51 10.5 37 37 N N/A 30.03 1017 10 16 N/A
4:15 pm 16:15 Sunny 78 25.3 50 9.9 38 38 N N/A 30.03 1017 10 16 N/A
4:35 pm 16:35 Sunny 80 26.4 52 11.3 39 39 N N/A 30.03 1017 10 16 N/A
4:55 pm 16:55 Sunny 78 25.4 52 11 41 41 N N/A 30.03 1017 10 16 N/A
5:15 pm 17:15 Sunny 77 25.2 50 9.9 38 38 N N/A 30.03 1017 10 16 N/A
5:35 pm 17:35 Sunny 79 25.9 52 10.9 39 39 N N/A 30.03 1017 10 16 N/A
5:55 pm 17:55 Sunny 78 25.5 51 10.4 39 39 N N/A 30.03 1017 10 16 N/A
6:15 pm 18:15 Sunny 77 25.1 54 12 44 44 N N/A 30.03 1017 10 16 N/A
6:35 pm 18:35 Sunny 77 25.1 54 12.3 45 45 NE 5 7 30.03 1017 10 16 N/A
6:55 pm 18:55 Sunny 74 23.6 55 12.7 51 51 NE 3 6 30.03 1017 10 16 N/A
7:15 pm 19:15 Clear 72 22.2 58 14.4 61 61 N N/A 30.03 1017 10 16 N/A
7:35 pm 19:35 Clear 69 20.8 58 14.6 68 68 N N/A 30.03 1017 10 16 N/A
7:55 pm 19:55 Clear 67 19.5 60 15.5 78 78 N N/A 30.03 1017 10 16 N/A
8:15 pm 20:15 Clear 64 18 59 14.8 82 82 N N/A 30.03 1017 10 16 N/A
8:35 pm 20:35 Clear 64 18 58 14.2 79 79 N N/A 30.03 1017 10 16 N/A
8:55 pm 20:55 Clear 62 16.8 56 13.6 82 82 N N/A 30.03 1017 10 16 N/A
9:15 pm 21:15 Clear 63 17.3 57 14 81 81 ENE 3 6 30.03 1017 10 16 N/A
9:35 pm 21:35 Clear 62 16.6 57 14 85 85 N N/A 30.06 1018 10 16 N/A
9:55 pm 21:55 Partly Cloudy 61 16 56 13.5 85 85 N N/A 30.09 1019 10 16 N/A
10:15 pm 22:15 Clear 60 15.3 56 13.1 87 87 N N/A 30.09 1019 10 16 N/A
10:35 pm 22:35 Clear 61 16 57 13.7 86 86 N N/A 30.09 1019 10 16 N/A
10:55 pm 22:55 Clear 60 15.3 56 13.1 87 87 N N/A 30.09 1019 10 16 N/A
11:15 pm 23:15 Clear 60 15.3 56 13.2 87 87 N N/A 30.09 1019 10 16 N/A
11:35 pm 23:35 Clear 60 15.3 56 13.2 87 87 N N/A 30.09 1019 10 16 N/A
11:55 pm 23:55 Partly Cloudy 60 15.3 56 13.2 87 87 NNE 3 6 30.09 1019 10 16 N/A

Powered by AerisWeather